Location: State Camp
(41.2367°N, 77.7828°W)
Time: 10:48:37
(UTC-04:00)

Amateur Radio Satellites - All Passes

Search period start: 27 April 2017 10:18
Search period end: 28 April 2017 10:18
Location: State Camp, 41.2367°N, 77.7828°W

Satellite Date Start Highest point End Downlink Frequencies (MHz)
Time Altitude Azimuth
UWE-3 27 Apr 10:20:18 10:23:58 30° 290° (WNW) 10:27:43 435.000/436.395/437.385
OBJECT BX 27 Apr 10:24:34 10:27:35 24° 95° (E) 10:30:37 145.990 - 145.960
TIGRISAT 27 Apr 10:32:33 10:36:57 86° 257° (WSW) 10:41:16 435.000
CUBEBUG 2 27 Apr 10:36:06 10:38:12 14° 296° (WNW) 10:40:20 437.445
Tancredo 1 27 Apr 10:41:46 10:43:49 16° 345° (NNW) 10:45:53 437.200
AIST 2D 27 Apr 10:46:54 10:48:54 15° 67° (ENE) 10:50:55 435.315
AAUSAT CUBESAT 2 27 Apr 10:49:39 10:51:49 14° 296° (WNW) 10:53:59 437.432
UNISAT 6 27 Apr 10:54:13 10:58:26 45° 261° (W) 11:02:36 437.425
POLYITAN 1 27 Apr 11:00:28 11:02:53 15° 64° (ENE) 11:05:19 437.675
O/OREOS (USA 219) 27 Apr 11:01:09 11:05:44 76° 293° (WNW) 11:10:22 437.305
QB50P2 27 Apr 11:06:28 11:09:27 19° 66° (ENE) 11:12:25 145.880/145.840
ISS 27 Apr 11:07:49 11:09:56 16° 348° (NNW) 11:12:03 437.550
RS-15 27 Apr 11:08:18 11:18:31 29° 336° (NNW) 11:28:50 29.354- 29.394
ZACube-1 27 Apr 11:15:28 11:17:49 15° 295° (WNW) 11:20:12 437.345
AO-73 27 Apr 11:22:06 11:24:16 14° 296° (WNW) 11:26:28 145.935
DELFI C3 27 Apr 11:26:28 11:30:15 41° 288° (WNW) 11:33:59 145.870
LO-87 27 Apr 11:26:44 11:29:11 18° 94° (E) 11:31:39 145.935 - 145.965
NANOSAT C BR1 27 Apr 11:27:07 11:30:37 26° 69° (ENE) 11:34:07 145.865
ESTCUBE 1 27 Apr 11:30:11 11:32:13 13° 90° (E) 11:34:15 437.505/2401.250
PCSat 27 Apr 11:33:48 11:39:09 54° 57° (ENE) 11:44:27 145.827
Oscar 11 27 Apr 11:37:20 11:39:06 12° 298° (WNW) 11:40:51 .
EO-79 27 Apr 11:54:36 11:58:45 58° 73° (ENE) 12:02:54 145.935-145.965
DUCHIFAT 1 27 Apr 11:55:54 11:59:56 48° 73° (ENE) 12:03:59 145.980
FO-29 27 Apr 11:57:43 12:02:33 23° 265° (W) 12:07:02 435.910
OBJECT BX 27 Apr 11:58:21 12:01:09 21° 291° (WNW) 12:03:56 145.990 - 145.960
AO-85 27 Apr 12:15:04 12:18:35 25° 114° (ESE) 12:21:58 145.980
AIST 2D 27 Apr 12:18:44 12:21:51 31° 263° (W) 12:24:59 435.315
Tancredo 1 27 Apr 12:19:13 12:20:41 13° 5° (N) 12:22:10 437.200
POLYITAN 1 27 Apr 12:34:12 12:38:16 48° 260° (W) 12:42:21 437.675
SPROUT 27 Apr 12:37:07 12:39:53 17° 93° (E) 12:42:38 437.525
QB50P2 27 Apr 12:41:03 12:44:58 37° 262° (W) 12:48:54 145.880/145.840
ISS 27 Apr 12:45:31 12:47:26 14° 8° (N) 12:49:19 437.550
BUGSAT 1 27 Apr 12:54:45 12:58:53 73° 74° (ENE) 13:02:59 437.445
LO-87 27 Apr 12:59:38 13:02:38 26° 290° (WNW) 13:05:38 145.935 - 145.965
NANOSAT C BR1 27 Apr 13:02:43 13:06:15 26° 264° (W) 13:09:47 145.865
ESTCUBE 1 27 Apr 13:04:54 13:09:24 61° 286° (WNW) 13:13:52 437.505/2401.250
VELOX 1 27 Apr 13:14:56 13:19:13 46° 99° (E) 13:23:27 145.980
AO-7 27 Apr 13:16:07 13:18:35 12° 42° (NE) 13:21:01 .
PCSat 27 Apr 13:18:07 13:22:06 21° 254° (WSW) 13:26:05 145.827
RS-15 27 Apr 13:27:13 13:36:43 24° 12° (NNE) 13:46:02 29.354- 29.394
50 SAT 27 Apr 13:28:37 13:31:51 35° 98° (E) 13:35:04 437.505
UKube-1 27 Apr 13:30:47 13:33:43 18° 93° (E) 13:36:37 .
Oscar 19 27 Apr 13:32:55 13:37:59 61° 72° (ENE) 13:43:06 437.125/150
EO-79 27 Apr 13:33:21 13:34:51 12° 270° (W) 13:36:22 145.935-145.965
DUCHIFAT 1 27 Apr 13:33:43 13:35:53 14° 269° (W) 13:38:02 145.980
Gurwin Techsat 1B 27 Apr 13:40:41 13:45:40 43° 70° (ENE) 13:50:41 435.225
Tancredo 1 27 Apr 13:54:38 13:57:22 27° 25° (NNE) 14:00:06 437.200
AO-85 27 Apr 13:55:03 13:58:52 32° 309° (NW) 14:02:30 145.980
BEESAT 3 27 Apr 13:58:00 14:01:51 55° 118° (ESE) 14:05:45 437.485
BEESAT 2 27 Apr 13:59:39 14:02:39 21° 112° (ESE) 14:05:41 435.950
DX 1 27 Apr 14:04:15 14:08:34 60° 101° (E) 14:12:51 434.975-435.025
SPROUT 27 Apr 14:11:58 14:15:57 40° 289° (WNW) 14:19:55 437.525
YUBILEINY 27 Apr 14:20:20 14:26:14 19° 62° (ENE) 14:32:08 435.215
ISS 27 Apr 14:21:33 14:24:37 36° 28° (NNE) 14:27:40 437.550
VELOX 1 27 Apr 14:52:24 14:55:16 17° 296° (WNW) 14:58:09 145.980
ITAMSAT 1 27 Apr 15:00:51 15:05:36 37° 68° (ENE) 15:10:21 435.822/435.867
AO-7 27 Apr 15:01:30 15:09:23 51° 63° (ENE) 15:17:17 .
50 SAT 27 Apr 15:02:43 15:04:28 13° 294° (WNW) 15:06:12 437.505
SO-50 27 Apr 15:05:27 15:09:44 41° 51° (NE) 15:14:00 436.795
UKube-1 27 Apr 15:05:51 15:09:54 40° 289° (WNW) 15:13:55 .
Oscar 19 27 Apr 15:14:36 15:17:42 16° 269° (W) 15:20:50 437.125/150
Gurwin Techsat 1B 27 Apr 15:21:32 15:25:46 24° 266° (W) 15:30:02 435.225
ITUPSAT 1 27 Apr 15:21:48 15:25:36 23° 95° (E) 15:29:22 437.325
Tancredo 1 27 Apr 15:30:25 15:33:19 37° 223° (SW) 15:36:12 437.200
BEESAT 2 27 Apr 15:36:32 15:40:11 35° 309° (NW) 15:43:54 435.950
BEESAT 3 27 Apr 15:37:10 15:39:45 17° 317° (NW) 15:42:23 437.485
RS-15 27 Apr 15:41:25 15:53:18 50° 44° (NE) 16:04:38 29.354- 29.394
DX 1 27 Apr 15:42:08 15:44:14 13° 298° (WNW) 15:46:21 434.975-435.025
ISS 27 Apr 15:58:12 16:01:02 27° 225° (SW) 16:03:51 437.550
MOZHAYETS 4 27 Apr 16:03:38 16:07:45 31° 96° (E) 16:11:51
YUBILEINY 27 Apr 16:15:29 16:24:18 90° 69° (ENE) 16:33:07 435.215
BEESAT 27 Apr 16:17:33 16:22:21 87° 102° (ESE) 16:27:07 436.000
ITAMSAT 1 27 Apr 16:40:47 16:45:06 27° 265° (W) 16:49:28 435.822/435.867
SO-50 27 Apr 16:46:28 16:49:56 22° 248° (WSW) 16:53:24 436.795
AO-7 27 Apr 16:54:48 17:02:17 37° 262° (W) 17:09:50 .
CUBESAT XI-V 27 Apr 16:57:27 17:00:58 20° 93° (E) 17:04:27 437.345
ITUPSAT 1 27 Apr 16:59:07 17:03:30 37° 291° (WNW) 17:07:54 437.325
XW-2D 27 Apr 17:20:22 17:21:32 11° 64° (ENE) 17:22:42 145.860 - 145.880
XW-2B 27 Apr 17:26:42 17:28:27 13° 65° (ENE) 17:30:12 145.730 - 145.750
KAITUO 1B 27 Apr 17:34:09 17:35:45 12° 65° (ENE) 17:37:22 145.475/437.950
XW-2C 27 Apr 17:37:46 17:40:18 18° 68° (ENE) 17:42:51 145.795 - 145.815
LilacSat-2 27 Apr 17:37:47 17:40:26 19° 68° (ENE) 17:43:06 437.200
DOVE 4 27 Apr 17:38:42 17:43:36 40° 71° (ENE) 17:48:25 437.250
MOZHAYETS 4 27 Apr 17:40:58 17:44:47 26° 292° (WNW) 17:48:36
KKS-1 27 Apr 17:45:43 17:50:08 65° 102° (ESE) 17:54:31 437.445
RS-15 27 Apr 17:54:20 18:06:03 57° 248° (WSW) 18:17:13 29.354- 29.394
CUTE-I 27 Apr 17:54:35 17:59:22 35° 68° (ENE) 18:04:09 437.470
BEESAT 27 Apr 17:58:01 17:59:23 11° 301° (WNW) 18:00:46 436.000
XW-2F 27 Apr 18:01:37 18:04:57 32° 71° (ENE) 18:08:17 145.980 - 146.000
NUDT-PHONESAT 27 Apr 18:10:09 18:13:27 32° 72° (ENE) 18:16:45 437.300
YUBILEINY 27 Apr 18:14:31 18:19:49 18° 283° (WNW) 18:25:08 435.215
STARS 27 Apr 18:14:47 18:19:06 57° 102° (ESE) 18:23:22 437.465
CUBESAT XI-V 27 Apr 18:34:03 18:38:29 41° 289° (WNW) 18:42:52 437.345
CUTE 1.7 + AOD 2 27 Apr 18:41:33 18:43:50 14° 64° (ENE) 18:46:09 437.475
XW-2D 27 Apr 18:51:37 18:55:15 52° 260° (W) 18:58:56 145.860 - 145.880
HO-68 27 Apr 18:53:23 18:59:52 39° 64° (ENE) 19:06:22 435.675
XW-2B 27 Apr 18:58:41 19:02:15 43° 261° (W) 19:05:51 145.730 - 145.750
SEEDS 27 Apr 18:59:33 19:01:53 15° 64° (ENE) 19:04:14 437.485
KAITUO 1B 27 Apr 19:05:50 19:09:22 44° 261° (W) 19:12:55 145.475/437.950
XW-2C 27 Apr 19:10:57 19:14:16 30° 263° (W) 19:17:38 145.795 - 145.815
LilacSat-2 27 Apr 19:11:13 19:14:30 29° 263° (W) 19:17:50 437.200
DOVE 4 27 Apr 19:16:55 19:21:19 26° 266° (W) 19:25:40 437.250
KKS-1 27 Apr 19:24:06 19:26:08 13° 298° (WNW) 19:28:09 437.445
O/OREOS (USA 219) 27 Apr 19:32:39 19:36:14 22° 56° (ENE) 19:39:47 437.305
STRAND 1 27 Apr 19:34:10 19:37:37 18° 92° (E) 19:41:04 437.568
NO-84 27 Apr 19:34:22 19:38:04 54° 135° (SE) 19:41:28 435.350 FM
CUTE-I 27 Apr 19:34:44 19:39:24 30° 264° (W) 19:44:05 437.470
XW-2F 27 Apr 19:36:48 19:39:10 16° 267° (W) 19:41:34 145.980 - 146.000
XW-2A 27 Apr 19:37:01 19:40:19 58° 76° (ENE) 19:43:37 145.665 - 145.685
UWE-3 27 Apr 19:41:42 19:44:37 18° 67° (ENE) 19:47:31 435.000/436.395/437.385
NUDT-PHONESAT 27 Apr 19:45:15 19:47:27 15° 267° (W) 19:49:40 437.300
STARS 27 Apr 19:52:40 19:54:57 14° 297° (WNW) 19:57:13 437.465
CUBEBUG 2 27 Apr 19:55:47 19:59:54 43° 73° (ENE) 20:03:55 437.445
AAUSAT CUBESAT 2 27 Apr 20:02:38 20:06:22 33° 71° (ENE) 20:10:08 437.432
CUTE 1.7 + AOD 2 27 Apr 20:15:08 20:19:14 51° 261° (W) 20:23:23 437.475
M-CUBED/EXP-1 PRIME 27 Apr 20:33:04 20:37:00 42° 103° (ESE) 20:40:38 437.505
SEEDS 27 Apr 20:33:06 20:37:09 49° 261° (W) 20:41:15 437.485
ZACube-1 27 Apr 20:33:34 20:37:27 37° 72° (ENE) 20:41:17 437.345
AO-73 27 Apr 20:39:45 20:43:38 39° 72° (ENE) 20:47:31 145.935
HO-68 27 Apr 20:40:50 20:47:30 42° 262° (W) 20:54:13 435.675
AO-85 27 Apr 20:45:38 20:48:47 22° 47° (NE) 20:52:00 145.980
Oscar 11 27 Apr 20:53:39 20:57:47 48° 73° (ENE) 21:01:56 .
OBJECT BX 27 Apr 21:04:07 21:05:22 11° 65° (ENE) 21:06:38 145.990 - 145.960
O/OREOS (USA 219) 27 Apr 21:11:32 21:15:47 39° 254° (WSW) 21:20:00 437.305
STRAND 1 27 Apr 21:12:09 21:17:07 53° 288° (WNW) 21:22:03 437.568
NO-84 27 Apr 21:12:59 21:15:47 21° 330° (NNW) 21:18:25 435.350 FM
UWE-3 27 Apr 21:16:51 21:20:50 38° 262° (W) 21:24:45 435.000/436.395/437.385
CUBEBUG 2 27 Apr 21:33:58 21:36:41 16° 267° (W) 21:39:23 437.445
AAUSAT CUBESAT 2 27 Apr 21:38:53 21:41:54 19° 267° (W) 21:44:56 437.432
PRISM 27 Apr 21:53:00 21:55:00 13° 91° (E) 21:57:00 437.425
M-CUBED/EXP-1 PRIME 27 Apr 22:08:21 22:11:03 17° 302° (WNW) 22:13:37 437.505
ZACube-1 27 Apr 22:11:04 22:13:52 17° 267° (W) 22:16:38 437.345
DELFI C3 27 Apr 22:11:05 22:15:04 76° 259° (W) 22:19:05 145.870
BEESAT 3 27 Apr 22:14:51 22:18:31 32° 50° (NE) 22:22:08 437.485
BEESAT 2 27 Apr 22:17:02 22:19:39 16° 43° (NE) 22:22:14 435.950
AO-73 27 Apr 22:17:24 22:20:03 16° 268° (W) 22:22:40 145.935
TIGRISAT 27 Apr 22:24:42 22:27:43 18° 93° (E) 22:30:44 435.000
AO-85 27 Apr 22:25:33 22:29:14 36° 243° (WSW) 22:33:04 145.980
ESTCUBE 1 27 Apr 22:30:13 22:32:12 13° 62° (ENE) 22:34:12 437.505/2401.250
Oscar 11 27 Apr 22:31:49 22:34:10 14° 269° (W) 22:36:34 .
OBJECT BX 27 Apr 22:35:07 22:38:37 47° 260° (W) 22:42:10 145.990 - 145.960
UNISAT 6 27 Apr 22:45:35 22:49:30 34° 97° (E) 22:53:27 437.425
FO-29 27 Apr 23:04:34 23:09:31 41° 99° (E) 23:14:46 435.910
PRISM 27 Apr 23:26:32 23:30:34 49° 287° (WNW) 23:34:32 437.425
SPROUT 27 Apr 23:31:13 23:33:25 14° 63° (ENE) 23:35:35 437.525
LO-87 27 Apr 23:34:42 23:38:19 70° 259° (WSW) 23:41:57 145.935 - 145.965
AIST 2D 27 Apr 23:44:09 23:46:34 17° 94° (E) 23:48:59 435.315
BEESAT 3 27 Apr 23:52:45 23:55:55 23° 248° (WSW) 23:59:04 437.485
BEESAT 2 27 Apr 23:53:46 23:57:47 59° 241° (WSW) 00:01:43 435.950
TIGRISAT 28 Apr 00:00:34 00:04:31 37° 289° (WNW) 00:08:31 435.000
50 SAT 28 Apr 00:02:24 00:04:22 15° 66° (ENE) 00:06:21 437.505
ESTCUBE 1 28 Apr 00:03:56 00:08:25 68° 259° (WSW) 00:12:56 437.505/2401.250
VELOX 1 28 Apr 00:11:50 00:16:02 41° 71° (ENE) 00:20:14 145.980
POLYITAN 1 28 Apr 00:19:11 00:22:40 25° 95° (E) 00:26:11 437.675
UNISAT 6 28 Apr 00:22:46 00:26:01 21° 293° (WNW) 00:29:17 437.425
UKube-1 28 Apr 00:25:38 00:28:18 16° 64° (ENE) 00:30:58 .
QB50P2 28 Apr 00:25:38 00:29:26 32° 97° (E) 00:33:14 145.880/145.840
NANOSAT C BR1 28 Apr 00:46:05 00:50:08 46° 99° (E) 00:54:09 145.865
FO-29 28 Apr 00:50:17 00:54:27 25° 294° (WNW) 00:58:47 435.910
DX 1 28 Apr 00:59:22 01:03:36 52° 73° (ENE) 01:07:53 434.975-435.025
SPROUT 28 Apr 01:04:40 01:08:51 55° 260° (W) 01:13:03 437.525
EO-79 28 Apr 01:14:40 01:18:52 74° 284° (WNW) 01:23:02 145.935-145.965
DUCHIFAT 1 28 Apr 01:15:05 01:19:16 89° 293° (WNW) 01:23:26 145.980
AIST 2D 28 Apr 01:16:47 01:19:47 26° 289° (WNW) 01:22:46 435.315
50 SAT 28 Apr 01:33:51 01:37:01 32° 262° (W) 01:40:13 437.505
Oscar 19 28 Apr 01:45:12 01:49:10 22° 93° (E) 01:53:05 437.125/150
VELOX 1 28 Apr 01:49:32 01:52:37 18° 267° (W) 01:55:45 145.980
BEESAT 28 Apr 01:49:40 01:51:20 12° 60° (ENE) 01:53:00 436.000
POLYITAN 1 28 Apr 01:54:53 01:58:24 26° 291° (WNW) 02:01:55 437.675
Gurwin Techsat 1B 28 Apr 01:57:56 02:01:16 17° 91° (E) 02:04:36 435.225
UKube-1 28 Apr 01:59:45 02:03:56 48° 260° (W) 02:08:08 .
QB50P2 28 Apr 02:01:51 02:05:02 21° 293° (WNW) 02:08:13 145.880/145.840
NO-84 28 Apr 02:08:57 02:11:38 31° 34° (NE) 02:14:14 435.350 FM
BUGSAT 1 28 Apr 02:11:37 02:15:36 63° 285° (WNW) 02:19:33 437.445
PCSat 28 Apr 02:15:16 02:20:28 50° 113° (ESE) 02:25:42 145.827
NANOSAT C BR1 28 Apr 02:22:59 02:25:27 15° 296° (WNW) 02:27:55 145.865
ITUPSAT 1 28 Apr 02:28:30 02:32:29 27° 67° (ENE) 02:36:30 437.325
DX 1 28 Apr 02:37:43 02:40:05 14° 268° (W) 02:42:27 434.975-435.025
MOZHAYETS 4 28 Apr 03:05:31 03:09:27 30° 69° (ENE) 03:13:24
AO-7 28 Apr 03:05:38 03:09:25 14° 88° (E) 03:13:10 .
ITAMSAT 1 28 Apr 03:15:29 03:17:36 12° 90° (E) 03:19:43 435.822/435.867
YUBILEINY 28 Apr 03:22:55 03:28:51 21° 79° (E) 03:34:48 435.215
BEESAT 28 Apr 03:23:40 03:28:25 82° 257° (WSW) 03:33:12 436.000
Oscar 19 28 Apr 03:23:43 03:28:41 46° 289° (WNW) 03:33:37 437.125/150
Gurwin Techsat 1B 28 Apr 03:36:22 03:41:37 61° 288° (WNW) 03:46:50 435.225
NO-84 28 Apr 03:46:54 03:48:56 18° 232° (SW) 03:50:58 435.350 FM
PCSat 28 Apr 03:59:35 04:04:06 26° 312° (NW) 04:08:40 145.827
CUBESAT XI-V 28 Apr 04:00:53 04:04:19 21° 65° (ENE) 04:07:45 437.345
ITUPSAT 1 28 Apr 04:05:58 04:10:12 31° 263° (W) 04:14:26 437.325
MOZHAYETS 4 28 Apr 04:42:45 04:46:34 26° 265° (W) 04:50:25
KKS-1 28 Apr 04:43:20 04:47:44 59° 73° (ENE) 04:52:08 437.445
ITAMSAT 1 28 Apr 04:52:26 04:57:37 77° 286° (WNW) 05:02:47 435.822/435.867
AO-7 28 Apr 04:55:06 05:03:27 75° 106° (ESE) 05:11:46 .
STARS 28 Apr 05:10:59 05:15:15 50° 73° (ENE) 05:19:31 437.465
YUBILEINY 28 Apr 05:15:53 05:24:34 80° 278° (W) 05:33:20 435.215
SO-50 28 Apr 05:22:04 05:24:04 13° 108° (ESE) 05:26:03 436.795
CUBESAT XI-V 28 Apr 05:36:59 05:41:22 41° 262° (W) 05:45:49 437.345
RS-15 28 Apr 06:06:51 06:16:04 27° 101° (E) 06:25:26 29.354- 29.394
CUTE-I 28 Apr 06:13:11 06:15:33 13° 89° (E) 06:17:53 437.470
KKS-1 28 Apr 06:22:35 06:24:39 13° 269° (W) 06:26:42 437.445
XW-2D 28 Apr 06:25:02 06:27:23 15° 93° (E) 06:29:43 145.860 - 145.880
XW-2B 28 Apr 06:31:44 06:34:24 18° 93° (E) 06:37:04 145.730 - 145.750
ITAMSAT 1 28 Apr 06:35:27 06:36:11 10° 303° (WNW) 06:36:56 435.822/435.867
KAITUO 1B 28 Apr 06:37:41 06:40:11 17° 93° (E) 06:42:41 145.475/437.950
XW-2C 28 Apr 06:43:18 06:46:30 25° 96° (E) 06:49:41 145.795 - 145.815
LilacSat-2 28 Apr 06:44:03 06:47:22 27° 96° (E) 06:50:40 437.200
AO-7 28 Apr 06:48:55 06:55:26 27° 306° (NW) 07:01:58 .
STARS 28 Apr 06:49:22 06:51:52 15° 268° (W) 06:54:22 437.465
STRAND 1 28 Apr 06:49:49 06:54:02 27° 66° (ENE) 06:58:16 437.568
SO-50 28 Apr 06:59:20 07:03:57 72° 305° (NW) 07:08:31 436.795
XW-2F 28 Apr 07:07:13 07:10:55 47° 99° (E) 07:14:36 145.980 - 146.000
NUDT-PHONESAT 28 Apr 07:13:53 07:17:29 46° 99° (E) 07:21:05 437.300
DOVE 4 28 Apr 07:15:19 07:19:55 84° 282° (WNW) 07:24:14 437.250
M-CUBED/EXP-1 PRIME 28 Apr 07:17:30 07:22:02 57° 68° (ENE) 07:26:38 437.505
YUBILEINY 28 Apr 07:17:54 07:22:56 16° 300° (WNW) 07:27:59 435.215
CUTE-I 28 Apr 07:50:50 07:56:09 77° 286° (WNW) 08:01:27 437.470
XW-2D 28 Apr 07:58:10 08:01:41 35° 288° (WNW) 08:05:11 145.860 - 145.880
CUTE 1.7 + AOD 2 28 Apr 08:00:08 08:03:47 26° 95° (E) 08:07:24 437.475
Tancredo 1 28 Apr 08:03:49 08:06:50 51° 140° (SE) 08:09:52 437.200
XW-2B 28 Apr 08:05:17 08:08:39 30° 289° (WNW) 08:12:01 145.730 - 145.750
HO-68 28 Apr 08:07:59 08:14:41 40° 98° (E) 08:21:19 435.675
KAITUO 1B 28 Apr 08:10:53 08:14:16 32° 288° (WNW) 08:17:39 145.475/437.950
RS-15 28 Apr 08:14:56 08:27:02 85° 301° (WNW) 08:39:33 29.354- 29.394
SEEDS 28 Apr 08:17:01 08:20:37 26° 95° (E) 08:24:11 437.485
XW-2C 28 Apr 08:17:35 08:20:34 22° 291° (WNW) 08:23:34 145.795 - 145.815
LilacSat-2 28 Apr 08:18:33 08:21:30 21° 291° (WNW) 08:24:25 437.200
STRAND 1 28 Apr 08:28:21 08:33:03 37° 263° (W) 08:37:46 437.568
XW-2A 28 Apr 08:31:20 08:34:40 63° 101° (E) 08:38:00 145.665 - 145.685
ISS 28 Apr 08:37:31 08:40:47 87° 139° (SE) 08:44:03 437.550
XW-2F 28 Apr 08:42:57 08:44:38 13° 295° (WNW) 08:46:19 145.980 - 146.000
SO-50 28 Apr 08:43:18 08:45:12 12° 324° (NW) 08:47:07 436.795
PRISM 28 Apr 08:43:42 08:44:34 11° 61° (ENE) 08:45:26 437.425
NUDT-PHONESAT 28 Apr 08:49:24 08:50:59 12° 295° (WNW) 08:52:34 437.300
M-CUBED/EXP-1 PRIME 28 Apr 08:53:56 08:56:44 16° 264° (W) 08:59:33 437.505
UWE-3 28 Apr 09:05:48 09:09:44 38° 98° (E) 09:13:45 435.000/436.395/437.385
FO-29 28 Apr 09:18:27 09:22:35 19° 63° (ENE) 09:26:27 435.910
AAUSAT CUBESAT 2 28 Apr 09:19:27 09:23:37 64° 100° (E) 09:27:46 437.432
CUBEBUG 2 28 Apr 09:22:27 09:26:38 81° 282° (WNW) 09:30:52 437.445
TIGRISAT 28 Apr 09:23:50 09:26:39 17° 65° (ENE) 09:29:27 435.000
CUTE-I 28 Apr 09:34:11 09:35:17 11° 303° (WNW) 09:36:24 437.470
CUTE 1.7 + AOD 2 28 Apr 09:35:55 09:39:32 27° 291° (WNW) 09:43:07 437.475
Tancredo 1 28 Apr 09:40:19 09:42:53 23° 337° (NNW) 09:45:28 437.200
UNISAT 6 28 Apr 09:44:27 09:48:15 30° 70° (ENE) 09:52:01 437.425
O/OREOS (USA 219) 28 Apr 09:45:05 09:48:42 23° 102° (ESE) 09:52:21 437.305
DELFI C3 28 Apr 09:49:40 09:51:40 13° 91° (E) 09:53:40 145.870
SEEDS 28 Apr 09:52:39 09:56:13 26° 291° (WNW) 09:59:46 437.485
HO-68 28 Apr 09:55:45 10:02:22 41° 296° (WNW) 10:08:57 435.675
ZACube-1 28 Apr 09:57:10 10:01:25 85° 103° (ESE) 10:05:44 437.345
AO-73 28 Apr 10:03:00 10:07:15 89° 105° (ESE) 10:11:34 145.935
OBJECT BX 28 Apr 10:05:03 10:07:02 14° 92° (E) 10:08:59 145.990 - 145.960
